TimeCDT,TemperatureF,Dew PointF,Humidity,Sea Level PressureIn,VisibilityMPH,Wind Direction,Wind SpeedMPH,Gust SpeedMPH,PrecipitationIn,Events,Conditions,WindDirDegrees,DateUTC
12:52 AM,48.0,45.0,89,29.92,10.0,Calm,Calm,-,N/A,,Clear,0,2012-10-03 05:52:00
1:52 AM,48.9,45.0,86,29.93,10.0,Calm,Calm,-,N/A,,Clear,0,2012-10-03 06:52:00
2:52 AM,48.0,44.1,86,29.93,10.0,Calm,Calm,-,N/A,,Clear,0,2012-10-03 07:52:00
3:52 AM,46.9,43.0,86,29.93,10.0,Calm,Calm,-,N/A,,Clear,0,2012-10-03 08:52:00
4:52 AM,46.0,42.1,86,29.94,10.0,Calm,Calm,-,N/A,,Clear,0,2012-10-03 09:52:00
5:52 AM,46.9,42.1,83,29.95,10.0,Calm,Calm,-,N/A,,Clear,0,2012-10-03 10:52:00
6:52 AM,46.0,42.1,86,29.96,10.0,Calm,Calm,-,N/A,,Clear,0,2012-10-03 11:52:00
7:52 AM,46.0,42.1,86,29.98,10.0,Calm,Calm,-,N/A,,Clear,0,2012-10-03 12:52:00
8:52 AM,55.0,46.0,72,29.98,10.0,Calm,Calm,-,N/A,,Clear,0,2012-10-03 13:52:00
9:52 AM,60.1,46.9,62,29.99,10.0,Calm,Calm,-,N/A,,Clear,0,2012-10-03 14:52:00
10:52 AM,64.9,48.0,54,29.98,10.0,SE,4.6,-,N/A,,Clear,140,2012-10-03 15:52:00
11:52 AM,70.0,46.0,42,29.96,10.0,Calm,Calm,-,N/A,,Clear,0,2012-10-03 16:52:00
12:52 PM,73.9,44.1,34,29.95,10.0,East,3.5,-,N/A,,Clear,90,2012-10-03 17:52:00
1:52 PM,75.0,44.1,33,29.93,10.0,East,3.5,-,N/A,,Clear,80,2012-10-03 18:52:00
2:52 PM,77.0,45.0,32,29.92,10.0,ENE,3.5,-,N/A,,Clear,70,2012-10-03 19:52:00
3:52 PM,77.0,44.1,31,29.91,10.0,Variable,4.6,-,N/A,,Clear,0,2012-10-03 20:52:00
4:52 PM,75.9,44.1,32,29.91,10.0,South,4.6,-,N/A,,Clear,190,2012-10-03 21:52:00
5:52 PM,73.0,45.0,37,29.91,10.0,SE,5.8,-,N/A,,Clear,140,2012-10-03 22:52:00
6:52 PM,69.1,45.0,42,29.92,10.0,ESE,4.6,-,N/A,,Clear,120,2012-10-03 23:52:00
7:52 PM,64.0,46.0,52,29.95,10.0,SE,6.9,-,N/A,,Mostly Cloudy,130,2012-10-04 00:52:00
8:52 PM,62.1,48.0,60,29.96,10.0,SE,5.8,-,N/A,,Clear,130,2012-10-04 01:52:00
9:52 PM,61.0,48.0,62,29.97,10.0,SE,6.9,-,N/A,,Overcast,130,2012-10-04 02:52:00
10:52 PM,60.1,48.9,67,29.99,10.0,SE,4.6,-,N/A,,Mostly Cloudy,130,2012-10-04 03:52:00
11:52 PM,57.0,48.9,74,29.99,10.0,SSE,3.5,-,N/A,,Clear,150,2012-10-04 04:52:00